Weather in Voskresenskoe

Russia / Tula Oblast     54°06′10″N   37°06′40″E
temp.,
°C
wind,
m/s
gust,
m/s
humid.,
%
clouds,
%
prec.,
mm/h
press.,
hPa
HPBL,
m
25 june, sat
sat2500:00+14nne228180 0.0 101619
03:00+13nne338347 0.0 101730
06:00+14ne268617 0.0 1017151
09:00+20ne45725 0.0 1018462
12:00+23ne56595 0.0 10181410
15:00+24ene565828 0.0 10181753
18:00+23ne24711 0.0 1018933
21:00+19n118116 0.1 101911
26 june, sun
sun2600:00+19n227387 0.0 102040
03:00+17nne34804 0.0 102188
06:00+17ne24861 0.0 1022108
09:00+22ne237250 0.0 1022360
12:00+26ne23600 0.0 10221154
15:00+27n335527 0.0 10221752
18:00+26nne12610 0.0 1021925
21:00+21wnw127147 0.0 102211
27 june, mon
mon2700:00+22wnw3368100 0.0 102256
03:00+21wnw357683 0.0 1022120
06:00+20nw26875 0.0 1022161
09:00+25nw34695 0.0 1022382
12:00+28nw34570 0.0 10211089
15:00+29n45564 0.0 10201634
18:00+28nnw48661 0.0 1019370
21:00+22nnw35760 0.0 102059
28 june, tue
tue2800:00+20n34780 0.0 102045
03:00+18nne22810 0.0 102011
06:00+20ne24790 0.0 102189
09:00+23ne34705 0.0 1021456
12:00+26ne446417 0.0 10211300
15:00+24ne566993 1.9 10221170
18:00+22ne56704 0.1 1022825
21:00+17ene23751 0.1 102325
29 june, wed
wed2900:00+14ene33705 0.0 102346
03:00+12ene22715 0.0 102425
06:00+12ene35805 0.0 1025143
09:00+17ene45643 0.0 1024530
12:00+20ne44530 0.0 10251487
15:00+21ene44511 0.0 10241933
18:00+20ene346227 0.0 10241425
21:00+14ne22750 0.0 102514